Simultaneous Nadir Overpasses (SNOs) Predictions

Prediction of SNOs between METOP-B and TERRA Satellite Orbit:

Table of predicted SNOs for the next 14.0 days since TLE Epoch: 2/29/2020
Index Date (METOP-B) Time (METOP-B) Lat,Lon (METOP-B) SZA (METOP-B ) Date (TERRA) Time (TERRA) Lat,Lon (TERRA) SZA (TERRA ) Distance(km) Time Diff (sec)
1 03/01/2020 08:13:24 -81.30, -75.98 88.93 03/01/2020 08:14:03 -81.31, -76.11 88.93 2.30 39
2 03/01/2020 09:04:04 81.30, 91.54 91.08 03/01/2020 09:03:29 81.31, 91.62 91.08 1.53 35
3 03/04/2020 03:47:48 -81.30, -9.84 90.02 03/04/2020 03:48:17 -81.30, -9.88 90.02 0.74 29
4 03/04/2020 04:38:28 81.30, 157.67 89.99 03/04/2020 04:37:43 81.30, 157.81 89.98 2.30 45
5 03/06/2020 23:22:11 -81.30, 56.68 91.08 03/06/2020 23:22:29 -81.29, 56.55 91.09 2.33 18
6 03/07/2020 00:12:50 81.31,-135.42 88.98 03/07/2020 00:11:54 81.31,-135.43 88.96 0.81 56
7 03/09/2020 18:56:33 -81.30, 123.20 92.14 03/09/2020 18:56:38 -81.30, 123.17 92.14 0.42 5
8 03/09/2020 19:47:13 81.30, -69.30 87.87 03/09/2020 19:46:04 81.30, -69.22 87.85 1.34 69
9 03/12/2020 13:40:16 81.30, 21.91 86.76 03/12/2020 13:41:20 81.30, 21.93 86.79 0.48 64




NCC Satellite Simultaneous Nadir Overpasses (SNOs) Prediction Service
